OPS 4682 DEB, 38369

Orbit data source: Space-Track

OPS 4682 DEB, 38369 is space debris in LEO originally from a launch on Sat, 03 Apr 1965 UTC launched from the Air Force Western Test Range (AFWTR). Debris objects in space refer to the collection of defunct objects orbiting the Earth. Examples of debris include non-operational satellites, rocket bodies, and fragments generated from explosions, collisions, or faulty payload assembly.

Loading next visibility...
Identifier
38369, 1965-027BW
Orbit
LEO
Country
Flag of USUS
Related business
Manufacturer
Unknown
Mission
Spacecraft
Bus & Motor
Unknown
Mass
Unknown
Launch date (UTC)
1965-04-03 (61 years ago)
Launch vehicle
Unknown
Launch site
Air Force Western Test Range (AFWTR)
Object type
Payload
Rocket body
Debris
Shape & HBR
Unknown shape, 0.1 m
Radar Cross Section
Medium (>0.1 m² and <1 m²)

Expand to show TLE details & history
Last TLE update: 1 day ago

TLE from 1 day ago
0 OPS 4682 DEB
1 38369U 65027BW  26262.25322624 -.00000357  00000-0 -12352-2 0  9995
2 38369  90.2424   8.4114 0031428 153.2671 207.0078 12.98490718565237
Epoch: 2026-09-19T06:04Z
TLE epoch observation values (Epoch: 2026-09-19T06:04:38.747Z)
Latitude
-0.00005°
Longitude
-80.91446°
Altitude
1,292.317 km
Speed
7.2 km/s
True Right ascension
00h 33m 38s
True Declination
0° 00' 00"
Sunlit
Object was in full shadow at epoch
Visualization orbit readout
Latitude
Unknown
Longitude
Unknown
Altitude
Unknown
Speed
Unknown
Apparent Right ascension
Unknown
Apparent Declination
Unknown
Sunlit
N/A
Visualization observer readout
Local Sidereal Time
10:02:27
Azimuth
Unknown
Elevation
Unknown
Doppler factor
Unknown
Orbital elements
Apogee altitude
1,289.156 km
Perigee altitude
1,241.114 km
Semi-major axis
7,643.272 km
Eccentricity
0.00314
Inclination
90.2424°
RAAN
8.4114°
Arg. of periapsis
153.2671°
True anomaly
206.84483°
Mean anomaly
207.0078°
Eccentric anomaly
206.92626°
Mean motion
3.24806 °/min
Orbital period
110.84 mins
BSTAR
-0.0012352
Loading maneuver chart data...
Computing Atmospheric mass density...
Loading historical data...
Loading historical data...
Loading historical data...
Loading historical data...
Loading historical data...
Loading historical data...
Loading historical data...

Documentation

Showing up to 5 results
|